Regional Weather Roundup
Issued by NWS

Home | Current Version | Previous Version | Text Only | Print | Product List | Glossary On
Versions: 1 2 3 4 5 6 7 8 9 10 11 12 13 14 15 16 17 18 19 20 21 22 23 24 25 26 27 28 29 30 31 32 33 34 35 36 37 38 39 40 41 42 43 44 45 46 47 48 49 50
000
ASUS43 KDMX 291907
RWRIA

WEATHER ROUNDUP FOR IOWA
NATIONAL WEATHER SERVICE DES MOINES IA
200 PM CDT TUE JUL 29 2014

NOTE: "FAIR" INDICATES FEW OR NO CLOUDS BELOW 12,000 FEET WITH NO
SIGNIFICANT WEATHER AND/OR OBSTRUCTIONS TO VISIBILITY.

* - THESE STATIONS ARE NOT NWS STATIONS...THUS NOT UNDER NWS
QUALITY CONTROL.  THEY ALSO DO NOT REPORT WEATHER SUCH
AS PRECIPITATION OR FOG.

IAZ001>003-012>014-020>022-031>034-043>046-292000-
   NORTHWEST IOWA

CITY           SKY/WX    TMP DP  RH WIND       PRES   REMARKS
CARROLL *      CLOUDY    73  54  49 N9        30.18S
CHEROKEE *     MOSUNNY   73  52  46 CALM      30.18F
DENISON *      MOSUNNY   72  55  56 NW10      30.18S
LE MARS *      CLOUDY    72  54  53 N7        30.20F
ORANGE CITY *  MOSUNNY   73  52  46 W3        30.20S
SHELDON *      PTSUNNY   72  54  53 VRB6      30.18F
SIOUX CITY     CLOUDY    74  54  49 N6        30.19F
SPENCER        PTSUNNY   72  54  53 NW7       30.18F
STORM LAKE *   PTSUNNY   72  55  56 N6        30.20S
$$

IAZ055>058-069>071-079>083-090>094-292000-
   SOUTHWEST IOWA

CITY           SKY/WX    TMP DP  RH WIND       PRES   REMARKS
ATLANTIC *     PTSUNNY   73  57  56 VRB5G12   30.18F
AUDUBON *      MOSUNNY   77  55  47 NW8       30.20S
CLARINDA *     PTSUNNY   75  59  57 VRB5      30.19F
COUNCIL BLFS * MOSUNNY   77  57  50 N7G16     30.18F
CRESTON *      MOSUNNY   73  55  53 NW8G15    30.18F
HARLAN  *      PTSUNNY   72  55  56 NW8       30.23S
LAMONI         CLOUDY    74  55  51 NW6       30.17F
RED OAK *      SUNNY     77  57  50 N9G15     30.18F
SHENANDOAH *   MOSUNNY   77  57  50 NW7       30.18F
$$

IAZ047>049-059>061-072>074-084-292000-
   CENTRAL IOWA

CITY           SKY/WX    TMP DP  RH WIND       PRES   REMARKS
AMES           MOSUNNY   76  55  48 N8        30.15F
ANKENY *       PTSUNNY   75  54  46 W7        30.15F
CHARITON *     MOSUNNY   77  55  47 NW12G18   30.16S
DES MOINES     MOSUNNY   75  51  43 N7        30.15F
GRINNELL*      MOSUNNY   75  57  53 W7        30.15F
KNOXVILLE *    MOSUNNY   73  54  49 W6        30.14F
MARSHALLTOWN   MOSUNNY   76  57  51 NW12      30.13F
PELLA *        SUNNY     77  57  50 NW10      30.15F
PERRY *          N/A     73  55  53 W3        30.17S
$$

IAZ004>006-015-016-023>025-035-036-292000-
   NORTH CENTRAL IOWA

CITY           SKY/WX    TMP DP  RH WIND       PRES   REMARKS
ALGONA *       MOSUNNY   73  54  49 VRB5G13   30.17S
CLARION *      PTSUNNY   73  57  56 NW10      30.16F
ESTHERVILLE    MOSUNNY   71  52  50 NW7       30.17F
FORT DODGE *   PTSUNNY   73  55  53 N7        30.17F
MASON CITY     PTSUNNY   76  56  49 NW10G17   30.15F
FOREST CITY *  MOSUNNY   72  55  56 NE15G22   30.15F
IOWA FALLS *     N/A     75  57  53 NW8       30.16S
$$

IAZ007>011-017>019-026>030-037>042-050>054-066-292000-
   NORTHEAST IOWA

CITY           SKY/WX    TMP DP  RH WIND       PRES   REMARKS
CEDAR RAPIDS   MOSUNNY   76  53  44 NW10      30.11F
CHARLES CITY * MOSUNNY   75  57  53 NW13      30.13F
CLINTON *      MOSUNNY   77  57  50 NW12      30.11S
DECORAH *      MOSUNNY   75  59  57 NW10G17   30.09F
DUBUQUE        MOSUNNY   75  57  53 NW10      30.09F
MONTICELLO *   MOSUNNY   77  59  53 W12       30.09F
OELWEIN *      MOSUNNY   75  57  53 NW12      30.12F
WATERLOO       MOSUNNY   74  55  51 NW13G21   30.11F
$$

IAZ064-065-067-068-078-292000-
   EAST CENTRAL IOWA

CITY           SKY/WX    TMP DP  RH WIND       PRES   REMARKS
DAVENPORT      MOSUNNY   77  58  51 NW13      30.10S
IOWA CITY      SUNNY     76  56  49 NW10      30.12F
MT. PLEASANT * CLOUDY    75  54  46 NW7       30.13S
MUSCATINE *    MOSUNNY   79  55  44 NW9G16    30.11S
QUAD CITIES    MOSUNNY   80  54  40 NW10      30.09  HX  80
$$

IAZ062-063-075>077-085>089-095>099-292000-
   SOUTHEAST IOWA

CITY           SKY/WX    TMP DP  RH WIND       PRES   REMARKS
BURLINGTON     PTSUNNY   75  56  51 N10       30.12F
FAIRFIELD *    MOSUNNY   75  57  53 VRB7G15   30.13F
FORT MADISON * MOSUNNY   77  59  53 NW6       30.14S
KEOKUK *       MOSUNNY   77  57  50 NW10      30.13S
OSKALOOSA *      N/A     75  59  57 NW8       30.14F
CENTERVILLE *  SUNNY     77  55  47 NW3       30.17S
OTTUMWA        MOSUNNY   72  57  59 NW9       30.12F
WASHINGTON *   MOSUNNY   75  59  57 NW9       30.12F
$$

ABBREVIATIONS USED IN REMARKS
   TC - TEMPERATURES IN CELSIUS
  WCI - WIND CHILL INDEX
   HX - HEAT INDEX
  VSB - VISIBILITY
$$



USA.gov is the U.S. government's official web portal to all federal, state and local government web resources and services.